Time,TemperatureF,DewpointF,PressureIn,WindDirection,WindDirectionDegrees,WindSpeedMPH,WindSpeedGustMPH,Humidity,HourlyPrecipIn,Conditions,Clouds,dailyrainin,SolarRadiationWatts/m^2,SoftwareType,DateUTC
2013-08-02 00:02:00,86.0,72.0,29.92,SSE,151,0.0,3.0,63,0.00,,,0.00,0.000000,,2013-08-02 05:02:00,
2013-08-02 00:12:00,86.0,72.0,29.90,SSE,151,1.0,3.0,63,0.00,,,0.00,0.000000,,2013-08-02 05:12:00,
2013-08-02 00:32:00,85.0,71.0,29.91,SSE,155,1.0,3.0,64,0.00,,,0.00,0.000000,,2013-08-02 05:32:00,
2013-08-02 00:43:00,85.0,71.0,29.92,SSE,155,1.0,3.0,64,0.00,,,0.00,0.000000,,2013-08-02 05:43:00,
2013-08-02 01:02:00,85.0,72.0,29.91,SSE,157,1.0,3.0,65,0.00,,,0.00,0.000000,,2013-08-02 06:02:00,
2013-08-02 01:12:00,85.0,72.0,29.92,SSE,153,0.0,6.0,65,0.00,,,0.00,0.000000,,2013-08-02 06:12:00,
2013-08-02 01:33:00,84.0,71.0,29.91,SSE,153,1.0,5.0,65,0.00,,,0.00,0.000000,,2013-08-02 06:33:00,
2013-08-02 01:43:00,84.0,71.0,29.92,SSE,153,1.0,3.0,66,0.00,,,0.00,0.000000,,2013-08-02 06:43:00,
2013-08-02 02:02:00,83.0,71.0,29.68,SSE,153,0.0,3.0,67,0.00,,,0.00,0.000000,,2013-08-02 07:02:00,
2013-08-02 02:12:00,83.0,71.0,29.92,SSE,153,0.0,1.0,67,0.00,,,0.00,0.000000,,2013-08-02 07:12:00,
2013-08-02 02:33:00,83.0,71.0,29.91,SSE,153,0.0,3.0,68,0.00,,,0.00,0.000000,,2013-08-02 07:33:00,
2013-08-02 02:44:00,83.0,71.0,29.91,SSE,153,0.0,3.0,68,0.00,,,0.00,0.000000,,2013-08-02 07:44:00,
2013-08-02 03:02:00,82.0,71.0,29.92,SSE,153,0.0,2.0,69,0.00,,,0.00,0.000000,,2013-08-02 08:02:00,
2013-08-02 03:12:00,82.0,71.0,29.92,SSE,153,0.0,5.0,69,0.00,,,0.00,0.000000,,2013-08-02 08:12:00,
2013-08-02 03:33:00,82.0,71.0,29.91,SSE,153,0.0,3.0,70,0.00,,,0.00,0.000000,,2013-08-02 08:33:00,
2013-08-02 03:43:00,82.0,71.0,29.62,SSE,152,0.0,3.0,70,0.00,,,0.00,0.000000,,2013-08-02 08:43:00,
2013-08-02 04:02:00,81.0,71.0,29.91,SSE,153,0.0,2.0,72,0.00,,,0.00,0.000000,,2013-08-02 09:02:00,
2013-08-02 04:12:00,81.0,71.0,29.91,SSE,153,0.0,3.0,72,0.00,,,0.00,0.000000,,2013-08-02 09:12:00,
2013-08-02 04:33:00,81.0,72.0,29.90,SSE,151,1.0,3.0,73,0.00,,,0.00,0.000000,,2013-08-02 09:33:00,
2013-08-02 04:43:00,81.0,72.0,29.90,SSE,149,1.0,3.0,74,0.00,,,0.00,0.000000,,2013-08-02 09:43:00,
2013-08-02 05:03:00,80.0,71.0,29.90,SSE,148,0.0,2.0,74,0.00,,,0.00,0.000000,,2013-08-02 10:03:00,
2013-08-02 05:12:00,80.0,71.0,29.89,SSE,148,0.0,3.0,75,0.00,,,0.00,0.000000,,2013-08-02 10:12:00,
2013-08-02 05:33:00,80.0,71.0,29.87,SSE,148,0.0,0.0,75,0.00,,,0.00,0.000000,,2013-08-02 10:33:00,
2013-08-02 05:43:00,80.0,71.0,29.88,SSE,148,0.0,1.0,75,0.00,,,0.00,0.000000,,2013-08-02 10:43:00,
2013-08-02 06:02:00,80.0,72.0,29.82,SSE,148,0.0,1.0,76,0.00,,,0.00,0.000000,,2013-08-02 11:02:00,
2013-08-02 06:12:00,79.0,71.0,29.91,SSE,148,0.0,1.0,76,0.00,,,0.00,0.000000,,2013-08-02 11:12:00,
2013-08-02 06:32:00,79.0,70.0,29.92,SSE,148,0.0,1.0,75,0.00,,,0.00,0.000000,,2013-08-02 11:32:00,
2013-08-02 06:42:00,79.0,70.0,29.91,SSE,148,0.0,1.0,75,0.00,,,0.00,0.000000,,2013-08-02 11:42:00,
2013-08-02 07:02:00,79.0,70.0,29.89,SSE,148,0.0,1.0,75,0.00,,,0.00,0.000000,,2013-08-02 12:02:00,
2013-08-02 07:12:00,79.0,70.0,29.88,SSE,148,0.0,1.0,75,0.00,,,0.00,1.000000,,2013-08-02 12:12:00,
2013-08-02 07:32:00,79.0,70.0,29.91,SSE,148,0.0,1.0,75,0.00,,,0.00,2.000000,,2013-08-02 12:32:00,
2013-08-02 07:42:00,79.0,70.0,29.87,SSE,148,0.0,0.0,75,0.00,,,0.00,4.000000,,2013-08-02 12:42:00,
2013-08-02 08:02:00,79.0,70.0,29.87,SSE,147,0.0,2.0,75,0.00,,,0.00,5.000000,,2013-08-02 13:02:00,
2013-08-02 08:12:00,79.0,70.0,29.91,SSE,147,0.0,0.0,75,0.00,,,0.00,6.000000,,2013-08-02 13:12:00,
2013-08-02 08:33:00,80.0,72.0,29.93,SSE,147,0.0,1.0,76,0.00,,,0.00,6.000000,,2013-08-02 13:33:00,
2013-08-02 08:43:00,80.0,73.0,29.88,SSE,147,0.0,1.0,79,0.00,,,0.00,6.000000,,2013-08-02 13:43:00,
2013-08-02 08:52:00,80.0,72.0,29.84,SE,144,0.0,3.0,77,0.01,,,0.01,7.000000,,2013-08-02 13:52:00,
2013-08-02 09:02:00,80.0,72.0,29.87,SE,145,0.0,2.0,76,0.01,,,0.01,7.000000,,2013-08-02 14:02:00,
2013-08-02 09:22:00,82.0,72.0,29.92,South,175,0.0,3.0,71,0.01,,,0.01,7.000000,,2013-08-02 14:22:00,
2013-08-02 09:32:00,83.0,73.0,29.93,SW,225,0.0,3.0,71,0.01,,,0.01,8.000000,,2013-08-02 14:32:00,
2013-08-02 09:43:00,84.0,72.0,29.58,SSW,196,0.0,3.0,68,0.01,,,0.01,8.000000,,2013-08-02 14:43:00,
2013-08-02 10:03:00,86.0,72.0,29.91,West,274,1.0,9.0,64,0.00,,,0.01,11.000000,,2013-08-02 15:03:00,
2013-08-02 10:12:00,87.0,73.0,29.91,West,265,1.0,7.0,63,0.00,,,0.01,11.000000,,2013-08-02 15:12:00,
2013-08-02 10:22:00,87.0,72.0,29.91,SSW,205,1.0,3.0,62,0.00,,,0.01,13.000000,,2013-08-02 15:22:00,
2013-08-02 10:32:00,88.0,72.0,29.39,West,268,1.0,5.0,60,0.00,,,0.01,30.000000,,2013-08-02 15:32:00,
2013-08-02 10:43:00,89.0,72.0,29.74,SSW,193,1.0,6.0,58,0.00,,,0.01,14.000000,,2013-08-02 15:43:00,
2013-08-02 10:52:00,89.0,72.0,29.74,SSW,193,1.0,6.0,58,0.00,,,0.01,14.000000,,2013-08-02 15:52:00,
2013-08-02 11:02:00,90.0,72.0,29.90,SSE,161,1.0,7.0,56,0.00,,,0.01,19.000000,,2013-08-02 16:02:00,
2013-08-02 11:12:00,91.0,73.0,29.70,West,268,1.0,7.0,56,0.00,,,0.01,72.000000,,2013-08-02 16:12:00,
2013-08-02 11:22:00,92.0,73.0,29.88,SSW,195,0.0,3.0,55,0.00,,,0.01,75.000000,,2013-08-02 16:22:00,
2013-08-02 11:32:00,93.0,73.0,29.82,South,173,1.0,7.0,53,0.00,,,0.01,78.000000,,2013-08-02 16:32:00,
2013-08-02 11:43:00,94.0,74.0,29.82,SSE,158,1.0,9.0,52,0.00,,,0.01,81.000000,,2013-08-02 16:43:00,
2013-08-02 12:02:00,96.0,74.0,29.71,SW,232,1.0,5.0,50,0.00,,,0.01,83.000000,,2013-08-02 17:02:00,
2013-08-02 12:12:00,96.0,73.0,29.71,SSE,151,1.0,5.0,48,0.00,,,0.01,85.000000,,2013-08-02 17:12:00,
2013-08-02 12:35:00,98.0,74.0,29.85,South,173,1.0,6.0,46,0.00,,,0.01,88.000000,,2013-08-02 17:35:00,
2013-08-02 12:43:00,98.0,74.0,29.85,South,172,1.0,6.0,46,0.00,,,0.01,88.000000,,2013-08-02 17:43:00,
2013-08-02 13:02:00,99.0,73.0,29.57,SE,138,1.0,6.0,44,0.00,,,0.01,90.000000,,2013-08-02 18:02:00,
2013-08-02 13:12:00,98.0,72.0,29.57,SSE,166,2.0,9.0,44,0.00,,,0.01,93.000000,,2013-08-02 18:12:00,
2013-08-02 13:22:00,99.0,74.0,29.71,South,175,1.0,7.0,45,0.00,,,0.01,98.000000,,2013-08-02 18:22:00,
2013-08-02 13:32:00,99.0,73.0,29.84,West,259,1.0,7.0,44,0.00,,,0.01,95.000000,,2013-08-02 18:32:00,
2013-08-02 13:43:00,99.0,73.0,29.84,South,186,1.0,6.0,44,0.00,,,0.01,96.000000,,2013-08-02 18:43:00,
2013-08-02 13:52:00,99.0,73.0,29.84,SSE,159,1.0,5.0,44,0.00,,,0.01,96.000000,,2013-08-02 18:52:00,
2013-08-02 14:02:00,99.0,73.0,29.85,South,174,2.0,9.0,44,0.00,,,0.01,95.000000,,2013-08-02 19:02:00,
2013-08-02 14:12:00,100.0,74.0,29.85,West,265,1.0,6.0,44,0.00,,,0.01,97.000000,,2013-08-02 19:12:00,
2013-08-02 14:22:00,100.0,73.0,29.84,SSE,153,1.0,6.0,43,0.00,,,0.01,96.000000,,2013-08-02 19:22:00,
2013-08-02 14:32:00,100.0,73.0,29.89,SSW,198,1.0,6.0,43,0.00,,,0.01,93.000000,,2013-08-02 19:32:00,
2013-08-02 14:43:00,100.0,73.0,29.89,SE,137,1.0,6.0,43,0.00,,,0.01,93.000000,,2013-08-02 19:43:00,
2013-08-02 15:32:00,100.0,72.0,29.62,SSW,193,1.0,7.0,41,0.00,,,0.01,15.000000,,2013-08-02 20:32:00,
2013-08-02 15:43:00,99.0,72.0,29.77,SSE,167,1.0,5.0,42,0.00,,,0.01,21.000000,,2013-08-02 20:43:00,
2013-08-02 16:02:00,100.0,72.0,28.49,WNW,287,1.0,3.0,41,0.00,,,0.01,23.000000,,2013-08-02 21:02:00,
2013-08-02 16:12:00,100.0,71.0,28.49,SE,136,1.0,5.0,40,0.00,,,0.01,19.000000,,2013-08-02 21:12:00,
2013-08-02 16:22:00,99.0,70.0,28.49,SSW,201,0.0,6.0,40,0.00,,,0.01,12.000000,,2013-08-02 21:22:00,
2013-08-02 16:32:00,99.0,71.0,29.30,West,275,1.0,5.0,41,0.00,,,0.01,12.000000,,2013-08-02 21:32:00,
2013-08-02 17:02:00,100.0,71.0,29.72,SE,127,1.0,5.0,39,0.00,,,0.01,13.000000,,2013-08-02 22:02:00,
2013-08-02 17:12:00,100.0,70.0,29.75,SE,130,0.0,5.0,38,0.00,,,0.01,13.000000,,2013-08-02 22:12:00,
2013-08-02 17:32:00,100.0,71.0,29.75,SE,141,3.0,6.0,39,0.00,,,0.01,28.000000,,2013-08-02 22:32:00,
2013-08-02 17:43:00,100.0,71.0,29.85,SE,128,2.0,6.0,39,0.00,,,0.01,21.000000,,2013-08-02 22:43:00,
2013-08-02 17:52:00,100.0,71.0,29.76,SSE,155,1.0,6.0,39,0.00,,,0.01,48.000000,,2013-08-02 22:52:00,
2013-08-02 18:02:00,100.0,71.0,29.67,SW,233,1.0,5.0,39,0.00,,,0.01,23.000000,,2013-08-02 23:02:00,
2013-08-02 18:32:00,99.0,70.0,29.84,SE,143,1.0,3.0,39,0.00,,,0.01,35.000000,,2013-08-02 23:32:00,
2013-08-02 18:43:00,99.0,70.0,29.84,South,184,1.0,5.0,39,0.00,,,0.01,31.000000,,2013-08-02 23:43:00,
2013-08-02 19:02:00,99.0,69.0,29.81,SE,134,1.0,3.0,38,0.00,,,0.01,24.000000,,2013-08-03 00:02:00,
2013-08-02 19:12:00,98.0,69.0,29.65,SSW,192,1.0,3.0,39,0.00,,,0.01,20.000000,,2013-08-03 00:12:00,
2013-08-02 19:32:00,98.0,69.0,29.81,SE,141,1.0,7.0,39,0.00,,,0.01,13.000000,,2013-08-03 00:32:00,
2013-08-02 19:43:00,97.0,69.0,29.77,SE,145,2.0,7.0,40,0.00,,,0.01,10.000000,,2013-08-03 00:43:00,
2013-08-02 20:02:00,97.0,69.0,29.51,SSE,160,1.0,5.0,41,0.00,,,0.01,5.000000,,2013-08-03 01:02:00,
2013-08-02 20:12:00,96.0,68.0,29.86,SSE,164,1.0,3.0,41,0.00,,,0.01,3.000000,,2013-08-03 01:12:00,
2013-08-02 20:22:00,96.0,68.0,29.86,SSE,164,1.0,3.0,41,0.00,,,0.01,3.000000,,2013-08-03 01:22:00,
2013-08-02 20:32:00,96.0,68.0,29.86,SSE,164,1.0,3.0,41,0.00,,,0.01,3.000000,,2013-08-03 01:32:00,
2013-08-02 20:42:00,95.0,69.0,29.70,ESE,122,0.0,2.0,43,0.00,,,0.01,0.000000,,2013-08-03 01:42:00,
2013-08-02 20:53:00,95.0,69.0,29.70,ESE,122,0.0,2.0,43,0.00,,,0.01,0.000000,,2013-08-03 01:53:00,
2013-08-02 21:02:00,94.0,69.0,29.84,ESE,122,0.0,0.0,45,0.00,,,0.01,0.000000,,2013-08-03 02:02:00,
2013-08-02 21:12:00,93.0,69.0,28.43,ESE,122,0.0,0.0,46,0.00,,,0.01,0.000000,,2013-08-03 02:12:00,
2013-08-02 21:30:00,91.0,69.0,29.59,ESE,123,0.0,0.0,48,0.00,,,0.01,0.000000,,2013-08-03 02:30:00,
2013-08-02 21:32:00,92.0,69.0,29.08,ESE,123,0.0,0.0,47,0.00,,,0.01,0.000000,,2013-08-03 02:32:00,
2013-08-02 21:43:00,91.0,69.0,29.59,ESE,123,0.0,0.0,48,0.00,,,0.01,0.000000,,2013-08-03 02:43:00,
2013-08-02 21:52:00,91.0,69.0,29.59,ESE,123,0.0,0.0,48,0.00,,,0.01,0.000000,,2013-08-03 02:52:00,
2013-08-02 22:02:00,91.0,69.0,29.59,ESE,123,0.0,0.0,48,0.00,,,0.01,0.000000,,2013-08-03 03:02:00,
2013-08-02 22:12:00,91.0,69.0,29.59,ESE,123,0.0,0.0,48,0.00,,,0.01,0.000000,,2013-08-03 03:12:00,
2013-08-02 22:22:00,91.0,69.0,29.59,ESE,123,0.0,0.0,48,0.00,,,0.01,0.000000,,2013-08-03 03:22:00,